TIME,DELAY(SENSOR),PRES,T(CTD),SAL,OXYGEN,RAWTEMP,T(OPTODE),TCPHASE,FLUOR,BETA(BETA700),BETA(BETA412),BETA(BETA440),CDOM,C(CSC),ED(ED411.90),ED(ED443.80),ED(ED489.40),ED(ED554.70),LU(LU412.20),LU(LU443.80),LU(LU489.40),LU(LU555.00),COMP,TILTX,TILTX(TILTY),CHECK
1352129163,5805,496.6300048828125000,17.4979991912841800,36.4662017822265600,232.5597991943359400,171.7671051025390600,17.4996891021728500,31.0747108459472660,50,99,66,64,61,13688,2146955812,2147514304,2147270912,2147463643,2147083520,2146955227,2147653156,2147128978,1937,-1,8,13929
1352129266,5805,485.9100036621094000,17.5851993560791000,36.4814987182617200,233.5419006347656200,169.1477966308593800,17.5787200927734380,30.9912109375000000,51,103,66,64,61,13685,2146957412,2147516288,2147269138,2147466313,2147085056,2146956288,2147652297,2147127067,1164,-1,8,25987
1352129369,5806,475.1000061035156000,17.6585998535156250,36.4961013793945300,233.7713012695312500,166.6098937988281200,17.6553096771240230,30.9460296630859380,50,101,66,65,61,13687,2146954980,2147514953,2147267108,2147462939,2147086482,2146954925,2147653074,2147123318,24,-1,8,53121
1352129493,5805,462.7099914550781000,17.7129993438720700,36.5064010620117200,235.6197052001953000,164.8686065673828000,17.7078704833984380,30.8330307006835940,51,100,66,63,61,13685,2146958637,2147515282,2147267245,2147462592,2147081874,2146954752,2147652626,2147130048,2236,-1,8,41203
1352129627,5808,451.8200073242187500,17.7353992462158200,36.5079994201660160,234.8208007812500000,164.1454010009765600,17.7297000885009770,30.8618202209472660,50,102,66,64,60,13684,2146957202,2147513718,2147267053,2147459648,2147086125,2146960621,2147655515,2147128685,1740,-1,8,57259
1352129780,5805,440.2500000000000000,17.8045997619628900,36.5222015380859400,235.6145935058593800,161.7957000732422000,17.8006191253662100,30.7918891906738280,50,99,67,64,59,13685,2146953828,2147512960,2147266203,2147459574,2147085833,2146954212,2147652187,2147127817,442,-1,9,38529
1352129919,5808,430.0700073242187500,17.8493003845214840,36.5285987854003900,236.5169982910156200,160.3329010009765600,17.8447799682617200,30.7289905548095700,50,100,66,64,61,13685,2146958098,2147513874,2147267638,2147458523,2147084827,2146957330,2147652772,2147130084,2592,-2,8,11070
1352130103,5805,416.6000061035156000,17.9202003479003900,36.5390014648437500,236.0843048095703000,158.0596923828125000,17.9134197235107420,30.7193508148193360,50,102,67,64,60,13684,2146958125,2147516681,2147264237,2147461485,2147084470,2146961106,2147652388,2147130752,1065,-1,9,27917
1352130227,5800,405.3399963378906000,17.9640007019042970,36.5466995239257800,236.3818054199218800,156.5256042480468800,17.9597396850585940,30.6844902038574220,50,99,65,63,60,13682,2146956288,2147515254,2147266660,2147460416,2147082413,2146960932,2147652635,2147130587,3112,-1,8,42782
1352130354,5808,393.7999877929687500,18.0230998992919920,36.5541992187500000,235.8847961425781200,154.4214935302734400,18.0232906341552730,30.6803398132324220,50,100,65,64,60,13684,2146953664,2147514605,2147269805,2147459986,2147081636,2146956233,2147650249,2147129142,1732,-1,8,64117
1352130471,5806,383.5199890136719000,18.0708007812500000,36.5597000122070300,235.3515930175781200,152.9602966308593800,18.0674190521240230,30.6864109039306640,50,100,65,64,60,13686,2146959542,2147513389,2147265353,2147457654,2147082779,2146959405,2147647204,2147129764,625,-1,8,41901
1352130598,5805,372.6400146484375000,18.1191997528076170,36.5637016296386700,234.4046020507812500,151.3462982177734400,18.1161708831787100,30.7102508544921880,51,101,65,64,61,13685,2146958418,2147515730,2147266852,2147458788,2147087917,2146959917,2147651456,2147130953,2955,-1,9,6227
1352130727,5807,361.7399902343750000,18.1627006530761720,36.5694999694824200,233.7109985351562500,149.7400054931640600,18.1646900177001950,30.7223606109619140,51,100,65,64,60,13684,2146958381,2147518829,2147265883,2147458788,2147073088,2146962422,2147653705,2147130422,1690,-1,8,6065
1352130866,5806,350.1199951171875000,18.2327995300292970,36.5764007568359400,232.8977050781250000,147.5372924804687500,18.2312393188476560,30.7325096130371100,50,100,66,65,61,13683,2146958976,2147516973,2147263570,2147456868,2147082825,2146957613,2147650770,2147128832,467,-1,9,4897
1352130993,5805,339.4800109863281000,18.2901992797851560,36.5811004638671900,231.9445037841797000,145.6463928222656200,18.2883796691894530,30.7537193298339840,50,100,66,64,61,13684,2146958884,2147517659,2147266834,2147455378,2147080128,2146960658,2147653778,2147126848,2552,-1,8,54951
1352131122,5804,328.8099975585937500,18.3563003540039060,36.5862007141113300,230.6764984130859400,143.5189056396484400,18.3526802062988280,30.7872200012207030,50,100,65,64,61,13684,2146959076,2147514432,2147264932,2147454144,2147077961,2146960914,2147655113,2147130322,1175,-2,8,14369
1352131261,5806,317.3900146484375000,18.4601993560791000,36.5872001647949200,229.0446929931640600,140.0119934082031200,18.4586791992187500,30.8209991455078120,51,97,65,64,61,13684,2146955977,2147515026,2147266834,2147459968,2147079259,2146957366,2147656630,2147125403,2956,-1,8,50380
1352131390,5805,306.9800109863281000,18.6203002929687500,36.6016006469726560,227.6651000976562500,134.4904022216797000,18.6256408691406250,30.8157691955566400,50,100,66,64,60,13684,2146960466,2147515254,2147265417,2147454902,2147082514,2146963072,2147648384,2147130523,1919,-1,8,6054
1352131529,5805,296.0299987792969000,18.7425994873046880,36.6003990173339840,227.0462951660156200,130.4423980712890600,18.7480907440185550,30.7926101684570300,51,99,65,64,61,13685,2146959277,2147512576,2147266560,2147455616,2147078281,2146962358,2147650404,2147126061,1559,-1,8,60693
1352131689,5803,283.4100036621094000,18.8549003601074220,36.5891990661621100,228.9194030761718800,127.2984008789062500,18.8432197570800780,30.6580600738525400,51,100,66,65,60,13683,2146957595,2147512493,2147266925,2147455844,2147081526,2146962633,2147652928,2147126848,618,-1,8,34273
1352131816,5804,271.5799865722656000,18.9060001373291000,36.5698013305664060,234.1941070556640600,124.4610977172851600,18.9290904998779300,30.3636207580566400,51,100,65,64,60,13681,2146958326,2147512402,2147268086,2147453760,2147083474,2146962971,2147655314,2147127305,2820,-1,8,40515
1352131943,5803,260.0000000000000000,19.0471992492675780,36.5662994384765600,237.5372009277343800,120.7307968139648400,19.0420303344726560,30.1555500030517580,51,100,65,64,60,13682,2146957705,2147513133,2147266496,2147456128,2147082093,2146970386,2147657920,2147128502,1287,-1,8,52794
1352132072,5805,248.9400024414062500,19.2154006958007800,36.5864982604980500,238.2879028320312500,115.0940017700195300,19.2127494812011720,30.0461997985839840,50,100,65,64,60,13682,2146956964,2147513737,2147265481,2147453156,2147084708,2146965248,2147664822,2147127899,2910,-1,8,62928
1352132199,5810,238.1499938964843800,19.2504005432128900,36.5652999877929700,243.4380950927734400,113.9306030273437500,19.2479991912841800,29.7926101684570300,50,101,66,64,59,13681,2146958656,2147514642,2147266432,2147452662,2147073398,2146972233,2147675254,2147133485,1718,-1,8,58711
1352132328,5807,227.1499938964843800,19.3397006988525400,36.5716018676757800,245.0428009033203000,110.8519973754882800,19.3412895202636720,29.6795997619628900,51,101,66,64,59,13681,2146957732,2147514313,2147263698,2147450112,2147076900,2146974262,2147680256,2147127625,873,-1,8,21832
1352132455,5806,215.9100036621093800,19.4381008148193360,36.5783996582031250,244.2915954589843800,107.7253036499023400,19.4360694885253900,29.6730308532714840,54,103,66,65,59,13676,2146954084,2147515465,2147268086,2147452406,2147086345,2146978514,2147681261,2147129563,3350,-1,8,28938
1352132570,5805,205.4600067138672000,19.6114006042480470,36.5984992980957000,242.6282043457031200,102.2783966064453100,19.6012496948242200,29.6784706115722660,57,104,66,64,59,13672,2146956608,2147514596,2147263424,2147452790,2147082020,2146980736,2147679670,2147129645,2005,-1,8,15363
1352132657,5804,197.8200073242187500,19.6956996917724600,36.6041984558105500,242.7346038818359400,99.2540435791015600,19.6930103302001950,29.6342601776123050,62,105,66,66,60,13670,2146960246,2147514633,2147266185,2147451446,2147082971,2146980096,2147679414,2147130880,1453,-1,9,36337
1352132712,5805,193.2599945068359400,19.8271007537841800,36.6124000549316400,243.7218933105468800,95.0962905883789000,19.8192005157470700,29.5357494354248050,65,104,65,64,59,13667,2146958281,2147514349,2147267510,2147451428,2147088182,2146981211,2147684004,2147131309,1429,-1,9,12412
1352132767,5806,188.7599945068359400,19.9929008483886720,36.6291999816894500,243.7541046142578000,89.3107910156250000,19.9948997497558600,29.4596099853515620,67,105,66,65,60,13664,2146959579,2147516370,2147267145,2147447725,2147087433,2146983524,2147686153,2147128457,1236,-1,8,2559
1352132822,5804,184.4499969482422000,20.1026992797851560,36.6361999511718750,243.1293945312500000,85.8733367919921900,20.0993404388427730,29.4438209533691400,58,105,65,63,61,13670,2146955748,2147514898,2147264987,2147450294,2147087771,2146979629,2147688073,2147130322,1361,-1,9,63259
1352132877,5805,180.1399993896484400,20.1884002685546880,36.6479988098144500,242.2572937011718800,83.0044403076171900,20.1865406036376950,29.4465904235839840,56,101,67,64,60,13674,2146955465,2147517906,2147265956,2147448000,2147084982,2146987209,2147692178,2147131986,1507,-1,9,3083
1352132956,5806,174.6600036621093800,20.3605995178222660,36.6719017028808600,240.1101074218750000,77.8584976196289000,20.3430309295654300,29.4787292480468750,54,101,66,64,62,13677,2146953545,2147515072,2147264054,2147449590,2147085796,2146992256,2147698944,2147133275,1317,-2,9,48362
1352133011,5803,171.5800018310547000,20.4223003387451170,36.6833992004394500,237.6549987792968800,75.3967590332031200,20.4179306030273440,29.5606994628906250,53,98,65,64,60,13680,2146953344,2147516525,2147262692,2147448612,2147088923,2146996617,2147704804,2147130496,1220,-1,9,38573
1352133090,5805,167.4900054931640600,20.6198997497558600,36.7140007019043000,233.0030059814453000,69.1797103881836000,20.6071891784667970,29.6995601654052730,51,102,66,64,61,13679,2146956781,2147514038,2147262646,2147447698,2147091044,2146997696,2147705910,2147133732,1048,-1,9,1996
1352133181,5806,163.3999938964843800,20.7371997833251950,36.7226982116699200,228.0473022460937500,64.7983169555664000,20.7406501770019530,29.8816604614257800,53,99,65,64,60,13681,2146953874,2147516141,2147264054,2147446198,2147089380,2147001664,2147703277,2147129078,908,-1,9,17416
1352133274,5806,159.8099975585937500,20.8607997894287100,36.7352981567382800,225.5597991943359400,61.3097381591796900,20.8469791412353500,29.9585990905761720,52,104,67,64,61,13678,2146951378,2147514057,2147264832,2147447131,2147089974,2147009664,2147713408,2147135140,842,-1,9,51370
1352133389,5804,155.8600006103515600,21.0142993927001950,36.7372016906738300,224.8513946533203000,56.4201889038085940,20.9960994720459000,29.9302692413330080,52,99,65,64,60,13681,2146955309,2147515218,2147262637,2147445686,2147090496,2147010724,2147728320,2147134317,1676,-2,9,41166
1352133516,5804,152.1399993896484400,21.0310001373291000,36.7341003417968750,226.7897033691406200,55.4222488403320300,21.0265407562255860,29.8218498229980470,53,101,66,65,60,13682,2146956224,2147514934,2147262537,2147442742,2147092260,2147015798,2147733714,2147132672,1596,-1,9,48329
1352133627,5804,147.6399993896484400,21.1068000793457030,36.7289009094238300,228.4705963134765600,53.0015182495117200,21.1004199981689450,29.7088508605957030,52,99,65,64,60,13679,2146958290,2147516489,2147262354,2147441078,2147094921,2147026057,2147753270,2147139254,1390,-1,9,64211
1352133718,5805,143.4799957275390600,21.2681999206542970,36.7382011413574200,226.5068054199218800,48.1000709533691400,21.2500705718994140,29.7414894104003900,52,102,66,64,60,13681,2146955693,2147514870,2147262089,2147441581,2147097728,2147042304,2147769810,2147138139,991,-1,9,43281
1352133809,5807,139.5500030517578000,21.4174003601074220,36.7554016113281250,224.5162048339843800,43.0290718078613300,21.4050197601318360,29.7738094329834000,55,99,64,64,60,13678,2146957165,2147517385,2147265581,2147442998,2147099456,2147068361,2147803072,2147140946,1266,-1,9,12190
1352133902,5807,135.5800018310547000,21.5221996307373050,36.7644996643066400,223.9944000244140600,39.3090705871582000,21.5187702178955080,29.7519607543945300,55,103,65,64,60,13676,2146957376,2147518912,2147268297,2147442477,2147108699,2147087067,2147848557,2147144356,1195,-2,9,64809
1352133993,5804,131.8800048828125000,21.6875000000000000,36.7589988708496100,225.0402069091797000,34.2611808776855500,21.6732196807861330,29.6352596282959000,54,106,66,64,59,13670,2146958464,2147517568,2147269284,2147439734,2147108498,2147083995,2147842093,2147143067,1524,-1,9,13370
1352134108,5806,128.2400054931640600,21.8080997467041000,36.7727012634277340,224.0007934570312500,30.1000900268554700,21.8006305694580080,29.6332893371582030,55,102,65,64,60,13675,2146957202,2147519506,2147267017,2147438272,2147107081,2147078921,2147821010,2147141147,861,-1,9,29447
1352134246,5805,123.8600006103515600,22.0049991607666000,36.7854003906250000,221.3757019042968800,23.6936206817626950,21.9969596862792970,29.6812705993652340,57,105,65,66,60,13671,2146958006,2147520429,2147266843,2147439771,2147112064,2147090779,2147838116,2147142153,534,-2,9,26824
1352134361,5805,119.7600021362304700,22.2031993865966800,36.7839012145996100,223.8014068603515600,17.2723102569580080,22.1939601898193360,29.4788703918457030,60,107,67,64,59,13667,2146956772,2147519305,2147264905,2147437513,2147124114,2147122706,2147880374,2147143305,130,-1,9,1203
1352134476,5808,115.8700027465820300,22.4057006835937500,36.7820014953613300,226.1884002685547000,10.9506196975708000,22.3881206512451170,29.2814903259277340,60,106,64,65,60,13664,2146960329,2147519213,2147272621,2147436672,2147134317,2147159149,2147947693,2147150912,367,-1,9,16562
1352134579,5806,111.4899978637695300,22.5667991638183600,36.7806015014648440,228.0619964599609400,5.4169888496398930,22.5582504272460940,29.1207504272460940,63,105,66,64,60,13662,2146957869,2147517366,2147276196,2147434916,2147155885,2147215926,2148032749,2147158656,3567,-1,9,55646
1352134658,5807,107.4700012207031200,22.6805000305175780,36.7672004699707000,228.0639953613281200,1.7816660404205322,22.6701107025146500,29.0748405456542970,68,108,68,65,59,13657,2146958912,2147524342,2147279414,2147437293,2147179108,2147288978,2148135433,2147165869,549,-1,8,59210
1352134737,5804,103.8399963378906200,22.7632007598876950,36.7652015686035160,225.3226928710937500,-1.2737989425659180,22.7641906738281250,29.1683692932128900,73,112,66,64,59,13640,2146963556,2147528795,2147282934,2147432576,2147208813,2147358016,2148236754,2147175204,577,-2,9,10553
1352134842,5807,100.1699981689453100,23.0335006713867200,36.7705993652343750,224.5269012451172000,-9.6161394119262700,23.0213203430175780,29.1012592315673830,80,114,66,65,59,13648,2146962368,2147530148,2147284187,2147432749,2147245924,2147432347,2148337792,2147181238,3540,-1,9,1878
1352134897,5805,98.7699966430664000,23.2229995727539060,36.7551002502441400,223.5785980224609400,-14.8215799331665040,23.1819801330566400,29.0816497802734380,86,116,66,66,59,13638,2146963282,2147529545,2147287835,2147436726,2147253321,2147450404,2148351140,2147184109,3100,-1,9,20090
1352134964,5807,97.6999969482421900,23.3920001983642580,36.7214012145996100,221.7315979003906200,-18.7059192657470700,23.3019695281982420,29.1232490539550780,91,116,64,66,59,13632,2146961590,2147530834,2147287954,2147431899,2147257654,2147450916,2148346477,2147182976,2553,0,9,61182
1352135174,5800,94.9300003051757800,23.4305000305175780,36.7089996337890600,219.3695983886718800,-22.3413391113281250,23.4143600463867200,29.1942996978759770,94,116,67,65,60,13619,2146964708,2147527625,2147284800,2147429430,2147269997,2147454994,2148336731,2147182409,2987,-1,9,51835
1352135229,5805,92.8799972534179700,23.5065994262695300,36.6866989135742200,219.0382995605468800,-24.1752300262451170,23.4710807800292970,29.1875400543212900,95,119,66,66,59,13622,2146963584,2147531218,2147287798,2147429595,2147288118,2147486619,2148363748,2147188480,2861,-1,9,15364
1352135284,5806,90.9000015258789000,23.5258007049560550,36.6794013977050800,218.6750030517578000,-25.5539703369140620,23.5137405395507800,29.1882991790771500,96,115,68,65,58,13616,2146964361,2147529179,2147287616,2147432338,2147307108,2147512009,2148402176,2147190665,3202,-1,9,31364
1352135339,5808,89.3300018310546900,23.5613002777099600,36.6632003784179700,219.0939025878906200,-26.8113403320312500,23.5526599884033200,29.1511497497558600,94,115,67,66,60,13617,2146964443,2147531757,2147289737,2147430089,2147328786,2147547904,2148440996,2147197650,3488,-2,9,21068
1352135477,5806,87.5299987792968800,23.6840000152587900,36.6054992675781250,220.9219970703125000,-29.6919498443603500,23.6418495178222660,29.0240898132324220,94,119,66,66,59,13609,2146962121,2147533229,2147292928,2147430217,2147363876,2147605595,2148508306,2147200978,713,-2,9,27567
1352135532,5805,86.3600006103515600,23.8113002777099600,36.5410995483398440,222.8740997314453000,-34.4356498718261700,23.7888507843017580,28.8683605194091800,97,115,67,66,59,13605,2146964086,2147533760,2147293760,2147428242,2147366436,2147602276,2148508790,2147205467,161,-2,9,59390
1352135659,5804,84.5899963378906200,23.8432998657226560,36.5205001831054700,226.0231933593750000,-35.9217796325683600,23.8349304199218750,28.6975898742675780,102,120,67,65,58,13593,2146962614,2147535643,2147290898,2147426395,2147380525,2147599899,2148498578,2147204635,3368,-2,9,46552
1352135785,5805,81.2799987792968800,23.8740005493164060,36.4978981018066400,227.4868927001953000,-36.9784202575683600,23.8677101135253900,28.6144104003906250,100,122,66,67,57,13580,2146970523,2147541970,2147305270,2147428086,2147491373,2147796800,2148750564,2147229714,3289,-1,9,62467
1352135840,5806,78.7699966430664000,23.9638996124267580,36.4477996826171900,229.1049041748047000,-39.6950798034668000,23.9519996643066400,28.5037193298339840,105,122,67,66,58,13583,2146975168,2147550098,2147312475,2147427821,2147594916,2147974518,2148972489,2147252662,3296,-1,9,58700
1352135895,5807,76.9300003051757800,23.9979991912841800,36.4394989013671900,231.1544952392578000,-40.8099517822265600,23.9866104125976560,28.3939895629882800,105,120,66,68,58,13579,2146979483,2147556041,2147327817,2147429586,2147694674,2148142006,2149181403,2147271753,2571,-2,9,15020
1352135962,5804,75.4700012207031200,24.0604991912841800,36.4206008911132800,232.6264038085937500,-42.7626495361328100,24.0472507476806640,28.3013496398925780,104,122,68,67,57,13576,2146985069,2147563885,2147335286,2147433517,2147825316,2148349193,2149461028,2147301046,2092,-2,9,55701
1352136017,5807,74.3499984741211000,24.0713005065917970,36.4094009399414060,234.1027984619140600,-43.3106384277343750,24.0642700195312500,28.2264308929443360,108,126,69,67,58,13566,2146991058,2147566966,2147345718,2147432237,2147934555,2148528000,2149670866,2147325677,1756,-2,9,38962
1352136108,5806,71.6500015258789000,24.0778999328613280,36.3869018554687500,236.6714019775390600,-43.6636085510253900,24.0752296447753900,28.1049194335937500,106,128,68,68,58,13567,2147002953,2147581165,2147356498,2147429238,2148140772,2148798244,2149987830,2147364928,1273,-1,9,60861
1352136163,5808,69.1299972534179700,24.0729999542236330,36.3759994506835940,237.8235931396484400,-43.4978904724121100,24.0700798034667970,28.0549793243408200,107,134,70,67,57,13551,2147003821,2147586697,2147362276,2147430857,2148229558,2148889188,2150073316,2147382226,1080,-1,9,58686
1352136218,5804,66.4800033569336000,24.0676994323730470,36.3596000671386700,239.3359985351562500,-43.3237190246582000,24.0646705627441400,27.9891700744628900,106,136,68,68,56,13546,2147005878,2147588598,2147364918,2147429851,2148303862,2148944658,2150104512,2147392045,1074,-1,10,53796
1352136273,5804,63.9399986267089840,24.0797996520996100,36.3373985290527340,240.5912017822265600,-43.6656684875488300,24.0753002166748050,27.9290008544921880,107,133,70,68,56,13545,2147009334,2147587446,2147367113,2147431049,2148356425,2148966537,2150095680,2147400237,1258,-2,9,26325
1352136328,5808,61.6100006103515600,24.0788002014160160,36.3321990966796900,241.3766937255859400,-43.7090492248535160,24.0766391754150400,27.8936195373535160,107,132,68,68,57,13547,2147008256,2147589184,2147366372,2147428918,2148376804,2148949083,2150049435,2147406866,943,-1,9,51739
1352136385,5805,59.2299995422363300,24.0739002227783200,36.3179016113281250,241.7619018554687500,-43.5426406860351560,24.0714702606201170,27.8787193298339840,102,132,69,68,56,13537,2147015826,2147594633,2147374025,2147433755,2148483428,2149067529,2150161234,2147426889,785,-1,9,10482
1352136440,5806,56.6800003051757800,24.0692996978759770,36.3119010925293000,242.3907928466797000,-43.4206886291503900,24.0676898956298830,27.8524608612060550,102,134,70,67,56,13540,2147028690,2147608795,2147392685,2147435785,2148775579,2149438546,2150584731,2147489014,781,-1,8,55807
1352136495,5808,54.2400016784668000,24.0643005371093750,36.3012008666992200,242.7037963867187500,-43.2728691101074200,24.0630893707275400,27.8406105041503900,100,134,70,68,56,13529,2147048502,2147634057,2147425078,2147438345,2149256210,2150074724,2151298724,2147597595,770,-1,9,52807
1352136637,5805,49.4300003051757800,24.0620002746582030,36.2887001037597660,242.9776000976562500,-43.1576118469238300,24.0595092773437500,27.8299503326416000,101,132,70,68,57,13527,2147115154,2147710857,2147536054,2147454464,2150838080,2152171456,2153684973,2147969691,1186,-1,9,15399
1352136670,5804,48.1199989318847660,24.0622005462646500,36.2882995605468750,243.0258026123047000,-43.1623306274414060,24.0596599578857420,27.8277492523193360,101,133,69,68,55,13533,2147138349,2147739401,2147567177,2147461083,2151383049,2152848557,2154439030,2148103241,1266,-2,9,28305
1352136705,5804,46.6100006103515600,24.0603008270263670,36.2896003723144500,242.9181976318359400,-43.1706886291503900,24.0599193572998050,27.8322505950927730,99,135,69,68,56,13533,2147156022,2147759250,2147593197,2147464146,2151848850,2153407972,2155031798,2148222683,1231,-1,9,49000
1352136750,5806,44.5600013732910160,24.0601997375488280,36.2892990112304700,243.0592041015625000,-43.1560401916503900,24.0594692230224600,27.8263702392578120,97,137,70,66,55,13532,2147164425,2147770834,2147601014,2147465298,2152163501,2153729371,2155306550,2148301001,1119,-1,9,26288
1352136795,5808,42.3899993896484400,24.0590991973876950,36.2899017333984400,243.1757965087890600,-43.1392211914062500,24.0589408874511720,27.8215293884277340,99,134,70,68,57,13520,2147164617,2147764379,2147589330,2147464073,2152045302,2153472731,2154946770,2148280054,1216,-1,9,32910
1352136828,5804,40.7900009155273440,24.0522994995117200,36.2851982116699200,243.1941070556640600,-42.9208908081054700,24.0521602630615230,27.8233509063720700,97,134,70,68,55,13522,2147155401,2147748800,2147571090,2147466944,2151811355,2153106020,2154481801,2148230720,1290,-1,9,38644
1352136873,5805,38.4700012207031250,24.0508995056152340,36.2857017517089840,243.3874053955078000,-42.9579582214355500,24.0533103942871100,27.8143596649169920,99,136,71,67,57,13510,2147168210,2147762752,2147581613,2147473499,2151983149,2153240621,2154553417,2148290651,1238,-2,9,49685
1352136906,5805,36.4199981689453100,24.0541992187500000,36.2849998474121100,243.4503936767578000,-42.9125289916992200,24.0519008636474600,27.8122005462646500,101,137,68,67,56,13515,2147191213,2147782674,2147610614,2147480658,2152559305,2153867712,2155153728,2148458953,946,-2,9,50470
1352136939,5806,34.5499992370605500,24.0531997680664060,36.2851982116699200,243.4548034667968800,-42.9240303039550800,24.0522594451904300,27.8118400573730470,101,130,68,67,57,13511,2147221961,2147812150,2147647616,2147492699,2153306660,2154721170,2155990509,2148671104,704,-1,8,23754